Voltar ao catálogo

SL-16 DEB

AtivoSSO
NORAD 27690·DEBRIS·🇷🇺 Russia

Lançado Dec 10, 2001 de Baikonur Cosmodrome

Loading…

Próximas Passagens (próximas 24 horas)

TLE

AtualizadoSource: Space-Track

Época: Sep 14, 2026, 11:49 UTC

1 27690U 01056J   26257.49239909 -.00000019  00000-0  51207-4 0  9993
2 27690 100.3594 127.2633 0182982  25.8403  91.3056 13.31101961202367

Acompanhe SL-16 DEB em tempo real com AllMySat

Download on the App Store